Lady's Island, SC

2:43 PM EST on January 23, 2017 (GMT -0500)
Beaufort

Weather History for KARW - January, 2013

Change the Weather History Date:

Thursday, January 31, 2013

  Actual Average (KNBC) Record (KNBC)
Temperature  
Mean Temperature 50 °F -  
Max Temperature 57 °F 61 °F 83 °F (1975)
Min Temperature 44 °F 40 °F 17 °F (1966)
Degree Days  
Heating Degree Days 14    
Moisture  
Dew Point 31 °F    
Average Humidity 50    
Maximum Humidity 94    
Minimum Humidity 25    
Precipitation  
Precipitation 0.00 in - - ()
Sea Level Pressure  
Sea Level Pressure 30.02 in    
Wind  
Wind Speed 14 mph (West)    
Max Wind Speed 22 mph    
Max Gust Speed 38 mph    
Visibility 7 miles    
Events Rain    
Averages and records for this station are not official NWS values.
T = Trace of Precipitation, MM = Missing Value Source: NWS Daily Summary

Daily Weather History Graph

Daily Weather History Graph

Search for Another Location

Airport or City:

Trip Planner

Search our weather history database for the weather conditions in past years. The results will help you decide how hot, cold, wet, or windy it might be!

Date:

Astronomy

Jan. 31, 2013 Rise Set
Actual Time 7:17 AM EST 5:55 PM EST
Civil Twilight 6:51 AM EST 6:20 PM EST
Nautical Twilight 6:22 AM EST 6:50 PM EST
Astronomical Twilight 5:53 AM EST 7:19 PM EST
Moon 10:34 PM EST (1/31) 9:35 AM EST (1/31)
Length of Visible Light 11h 29m
Length of Day
10h 37m
Waning Gibbous, 80% of the Moon is Illuminated
Jan 31
Waning Gibbous
Feb 3
Last Quarter
Feb 10
New
Feb 17
First Quarter
Feb 25
Full

Hourly Weather History & Observations

Time (EST) Temp. Windchill Dew Point Humidity Pressure Visibility Wind Dir Wind Speed Gust Speed Precip Events Conditions
12:15 AM 51.8 °F - 48.2 °F 88% 29.80 in 7.0 mi West 19.6 mph 28.8 mph N/A Rain Rain
12:35 AM 51.8 °F - 48.2 °F 88% 29.79 in 4.0 mi WSW 13.8 mph 23.0 mph N/A Rain Rain
12:55 AM 51.8 °F - 46.4 °F 82% 29.79 in 10.0 mi WSW 9.2 mph 17.3 mph N/A   Light Drizzle
1:15 AM 51.8 °F - 46.4 °F 82% 29.80 in 10.0 mi WSW 11.5 mph 16.1 mph N/A Rain Light Rain
1:35 AM 51.8 °F - 48.2 °F 88% 29.80 in 10.0 mi WSW 9.2 mph - N/A   Overcast
1:55 AM 53.6 °F - 50.0 °F 88% 29.81 in 7.0 mi SW 9.2 mph 17.3 mph N/A   Overcast
2:15 AM 53.6 °F - 51.8 °F 94% 29.81 in 5.0 mi SW 12.7 mph 18.4 mph N/A   Overcast
2:35 AM 53.6 °F - 50.0 °F 88% 29.82 in 7.0 mi SW 13.8 mph 19.6 mph N/A   Overcast
2:55 AM 53.6 °F - 50.0 °F 88% 29.82 in 7.0 mi WSW 16.1 mph 23.0 mph N/A   Overcast
3:15 AM 53.6 °F - 48.2 °F 82% 29.83 in 7.0 mi WSW 13.8 mph 24.2 mph N/A   Mostly Cloudy
3:35 AM 53.6 °F - 46.4 °F 77% 29.84 in 7.0 mi WSW 16.1 mph 26.5 mph N/A   Mostly Cloudy
3:55 AM 53.6 °F - 44.6 °F 72% 29.85 in 7.0 mi WSW 21.9 mph 29.9 mph N/A   Scattered Clouds
4:15 AM 51.8 °F - 42.8 °F 71% 29.86 in 7.0 mi West 19.6 mph 28.8 mph N/A   Scattered Clouds
4:35 AM 51.8 °F - 39.2 °F 62% 29.88 in 7.0 mi West 15.0 mph 27.6 mph N/A   Scattered Clouds
4:55 AM 51.8 °F - 37.4 °F 58% 29.89 in 7.0 mi West 16.1 mph 32.2 mph N/A   Scattered Clouds
5:15 AM 50.0 °F - 37.4 °F 62% 29.89 in 7.0 mi West 17.3 mph 27.6 mph N/A   Mostly Cloudy
5:35 AM 50.0 °F - 33.8 °F 54% 29.92 in 10.0 mi West 21.9 mph 38.0 mph N/A   Mostly Cloudy
5:55 AM 48.2 °F - 32.0 °F 54% 29.93 in 7.0 mi West 18.4 mph 32.2 mph N/A   Scattered Clouds
6:15 AM 46.4 °F 39.5 °F 32.0 °F 57% 29.94 in 10.0 mi West 17.3 mph 24.2 mph N/A   Clear
6:35 AM 46.4 °F 40.1 °F 32.0 °F 57% 29.96 in 10.0 mi West 15.0 mph 26.5 mph N/A   Clear
7:15 AM 46.4 °F 40.1 °F 32.0 °F 57% 29.98 in 7.0 mi West 15.0 mph 18.4 mph N/A   Clear
7:35 AM 44.6 °F 37.4 °F 32.0 °F 61% 29.97 in 5.0 mi WSW 16.1 mph 21.9 mph N/A   Haze
7:55 AM 44.6 °F 38.1 °F 32.0 °F 61% 29.99 in 7.0 mi West 13.8 mph 24.2 mph N/A   Clear
8:15 AM 46.4 °F 39.5 °F 32.0 °F 57% 30.02 in 7.0 mi West 17.3 mph 24.2 mph N/A   Clear
8:35 AM 46.4 °F 41.1 °F 32.0 °F 57% 30.03 in 7.0 mi West 11.5 mph 24.2 mph N/A   Clear
8:55 AM 46.4 °F 40.1 °F 32.0 °F 57% 30.04 in 7.0 mi West 15.0 mph 21.9 mph N/A   Clear
9:15 AM 46.4 °F 39.5 °F 32.0 °F 57% 30.04 in 7.0 mi WNW 17.3 mph 25.3 mph N/A   Clear
9:35 AM 46.4 °F 39.2 °F 30.2 °F 53% 30.04 in 5.0 mi WNW 18.4 mph 26.5 mph N/A   Haze
9:55 AM 48.2 °F - 30.2 °F 50% 30.05 in 7.0 mi West 17.3 mph 21.9 mph N/A   Clear
10:15 AM 48.2 °F - 30.2 °F 50% 30.06 in 7.0 mi WNW 15.0 mph 24.2 mph N/A   Clear
10:35 AM 50.0 °F - 28.4 °F 43% 30.06 in 7.0 mi WNW 15.0 mph 21.9 mph N/A   Clear
10:55 AM 50.0 °F - 28.4 °F 43% 30.06 in 7.0 mi WNW 17.3 mph 21.9 mph N/A   Clear
11:15 AM 50.0 °F - 26.6 °F 40% 30.07 in 7.0 mi WNW 10.4 mph - N/A   Clear
11:35 AM 51.8 °F - 23.0 °F 33% 30.07 in 7.0 mi WNW 15.0 mph - N/A   Clear
11:55 AM 51.8 °F - 24.8 °F 35% 30.06 in 5.0 mi West 13.8 mph 17.3 mph N/A   Haze
12:15 PM 53.6 °F - 26.6 °F 35% 30.06 in 5.0 mi West 17.3 mph 20.7 mph N/A   Haze
12:35 PM 53.6 °F - 23.0 °F 30% 30.06 in 7.0 mi West 17.3 mph 23.0 mph N/A   Clear
12:55 PM 55.4 °F - 24.8 °F 31% 30.05 in 7.0 mi West 17.3 mph 24.2 mph N/A   Clear
1:15 PM 55.4 °F - 23.0 °F 29% 30.05 in 7.0 mi West 17.3 mph 23.0 mph N/A   Clear
1:35 PM 55.4 °F - 23.0 °F 29% 30.05 in 7.0 mi West 13.8 mph 19.6 mph N/A   Clear
1:55 PM 55.4 °F - 21.2 °F 26% 30.04 in 7.0 mi West 15.0 mph 25.3 mph N/A   Clear
2:15 PM 55.4 °F - 19.4 °F 25% 30.04 in 7.0 mi WNW 17.3 mph 26.5 mph N/A   Clear
2:35 PM 57.2 °F - 21.2 °F 25% 30.04 in 5.0 mi West 19.6 mph 24.2 mph N/A   Haze
2:55 PM 57.2 °F - 21.2 °F 25% 30.05 in 5.0 mi West 18.4 mph 24.2 mph N/A   Haze
3:15 PM 57.2 °F - 21.2 °F 25% 30.05 in 7.0 mi West 20.7 mph 27.6 mph N/A   Clear
3:35 PM 55.4 °F - 19.4 °F 25% 30.06 in 5.0 mi West 19.6 mph 25.3 mph N/A   Haze
3:55 PM 55.4 °F - 19.4 °F 25% 30.06 in 7.0 mi WNW 18.4 mph 28.8 mph N/A   Clear
4:15 PM 55.4 °F - 19.4 °F 25% 30.07 in 7.0 mi West 12.7 mph 26.5 mph N/A   Clear
4:35 PM 55.4 °F - 21.2 °F 26% 30.07 in 4.0 mi WNW 13.8 mph 19.6 mph N/A   Haze
4:55 PM 55.4 °F - 21.2 °F 26% 30.08 in 7.0 mi West 19.6 mph 25.3 mph N/A   Clear
5:15 PM 53.6 °F - 21.2 °F 28% 30.09 in 7.0 mi West 13.8 mph 19.6 mph N/A   Clear
5:35 PM 53.6 °F - 21.2 °F 28% 30.09 in 7.0 mi West 12.7 mph 19.6 mph N/A   Clear
5:55 PM 51.8 °F - 21.2 °F 30% 30.10 in 7.0 mi West 9.2 mph - N/A   Clear
6:15 PM 51.8 °F - 23.0 °F 33% 30.11 in 7.0 mi West 5.8 mph - N/A   Clear
6:35 PM 48.2 °F - 24.8 °F 40% 30.12 in 7.0 mi West 5.8 mph - N/A   Clear
6:55 PM 48.2 °F - 23.0 °F 37% 30.13 in 10.0 mi West 8.1 mph - N/A   Clear
7:15 PM 46.4 °F 43.5 °F 23.0 °F 40% 30.13 in 10.0 mi WSW 5.8 mph - N/A   Clear
7:35 PM 48.2 °F - 23.0 °F 37% 30.14 in 7.0 mi WSW 6.9 mph - N/A   Clear
7:55 PM 44.6 °F 40.7 °F 24.8 °F 46% 30.14 in 7.0 mi WSW 6.9 mph - N/A   Clear
8:15 PM 46.4 °F 42.9 °F 26.6 °F 46% 30.16 in 10.0 mi WSW 6.9 mph - N/A   Clear
8:35 PM 46.4 °F 43.5 °F 26.6 °F 46% 30.16 in 10.0 mi WSW 5.8 mph - N/A   Clear
8:55 PM 46.4 °F 42.9 °F 26.6 °F 46% 30.17 in 10.0 mi WSW 6.9 mph - N/A   Clear
9:15 PM 46.4 °F 42.4 °F 26.6 °F 46% 30.17 in 7.0 mi West 8.1 mph - N/A   Clear
9:35 PM 46.4 °F 41.9 °F 28.4 °F 50% 30.18 in 7.0 mi West 9.2 mph - N/A   Clear
9:55 PM 46.4 °F 42.4 °F 28.4 °F 50% 30.19 in 7.0 mi West 8.1 mph - N/A   Clear
10:15 PM 46.4 °F 41.9 °F 28.4 °F 50% 30.19 in 7.0 mi West 9.2 mph - N/A   Clear
10:35 PM 46.4 °F 42.4 °F 26.6 °F 46% 30.20 in 7.0 mi West 8.1 mph - N/A   Clear
10:55 PM 46.4 °F 42.4 °F 26.6 °F 46% 30.20 in 7.0 mi West 8.1 mph - N/A   Clear
11:15 PM 46.4 °F 42.4 °F 26.6 °F 46% 30.20 in 7.0 mi West 8.1 mph - N/A   Clear
11:35 PM 46.4 °F 41.9 °F 26.6 °F 46% 30.20 in 7.0 mi West 9.2 mph - N/A   Clear
11:55 PM 46.4 °F 42.4 °F 26.6 °F 46% 30.20 in 7.0 mi West 8.1 mph - N/A   Clear